Location: Neuvy Saint Sepulchre
(46.5953°N, 1.8122°E)
Time: 10:49:11
(UTC+01:00)

Envisat - Pass Details

Date: 28 October 2021
Orbit: 764 x 766 km, 98.2° (Epoch: 28 November)

Event Time Altitude Azimuth Distance (km) Brightness Sun altitude
Rises 07:08:05 0° 13° (NNE) 3,243 6.4 -14.4°
Reaches altitude 10° 07:10:24 10° 13° (NNE) 2,312 5.6 -14.0°
Maximum altitude 07:15:31 89° 285° (WNW) 772 3.0 -13.1°
Drops below altitude 10° 07:20:35 10° 196° (SSW) 2,294 5.4 -12.3°
Sets 07:22:52 0° 196° (SSW) 3,215 6.1 -11.9°
